EHI
6 2 0 0 0 0 0 0 0 0 0 0 0 0 0 0 0 0 0 0 0 0 0 1 1 1 0 0 0 1 2 2 1 0 0 0 0 0 0 0 0 1 2 2 2 1 0 1 0
2 1 0 0 0 0 0 0 0 0 0 0 0 0 0 0 0 0 0 0 0 0 0 0 0 0 0 0 0 1 1 1 0 0 0 0 0 0 0 0 0 0 1 1 1 0 1 1 1
1 1 0 0 0 0 0 0 0 0 0 0 0 0 0 0 0 0 0 0 0 0 0 0 0 0 0 0 1 1 0 0 0 0 0 0 0 0 0 0 0 0 0 0 0 0 1 1 1
0 0 0 0 0 0 0 0 0 0 0 0 0 0 0 0 0 0 0 0 0 0 0 0 0 0 0 0 0 0 0 0 0 0 0 0 0 0 0 0 0 0 0 0 0 0 0 0 0
0 0 0 0 0 0 0 0 0 0 0 0 0 0 0 0 0 0 0 0 0 0 0 0 0 0 0 0 0 0 0 0 0 0 0 0 0 0 0 0 0 0 0 0 0 0 0 0 0
0 0 0 0 0 0 0 0 0 0 0 0 0 0 0 0 0 0 0 0 0 0 0 0 0 0 0 0 0 0 0 0 0 0 0 0 0 0 0 0 0 0 0 0 0 0 0 0 0
0 0 0 0 0 0 0 0 0 0 0 0 0 0 0 0 0 0 0 0 0 0 0 0 0 0 0 0 0 0 0 0 0 0 0 0 0 0 0 0 0 0 0 0 0 0 0 0 0
0 0 0 0 0 0 0 0 0 0 0 0 0 0 0 0 0 0 0 0 0 0 0 0 0 0 0 0 0 0 0 0 0 0 0 0 0 0 0 0 0 0 0 0 0 0 0 0 0
0 0 0 0 0 0 0 0 0 0 0 0 0 0 0 0 0 0 0 0 0 0 0 0 0 0 0 0 0 0 0 0 0 0 0 0 0 0 0 0 0 0 0 0 0 0 0 0 0
0 0 0 0 0 0 0 0 0 0 0 0 0 0 0 0 0 0 0 0 0 0 0 0 0 0 0 0 0 0 0 0 0 0 0 0 0 0 0 0 0 0 0 0 0 0 0 0 0
0 0 0 0 0 0 0 0 0 0 0 0 0 0 0 0 0 0 0 0 0 0 0 0 0 0 0 0 0 0 0 0 0 0 0 0 0 0 0 0 0 0 0 0 0 0 0 0 0
0 0 0 0 0 0 0 0 0 0 0 0 0 0 0 0 0 0 0 0 0 0 0 0 0 0 0 0 0 0 0 0 0 0 0 0 0 0 0 0 0 0 0 0 0 0 0 0 0
0 0 0 0 0 0 0 0 0 0 0 0 0 0 0 0 0 0 0 0 0 0 0 0 0 0 0 0 0 0 0 0 0 0 0 0 0 0 0 0 0 0 0 0 0 0 0 0 0
0 0 0 0 0 0 0 0 0 0 0 0 0 0 0 0 0 0 0 0 0 0 0 0 0 0 0 0 0 0 0 0 0 0 0 0 0 0 0 0 0 0 0 0 0 0 0 0 0
0 0 0 0 0 0 0 0 0 0 0 0 0 0 0 0 0 0 0 0 0 0 0 0 0 0 0 0 0 0 0 0 0 0 0 0 0 0 0 0 0 0 0 0 0 0 0 0 0
0 0 0 0 0 0 0 0 0 0 0 0 0 0 0 0 0 0 0 0 0 0 0 0 0 0 0 0 0 0 0 0 0 0 0 0 0 0 0 0 0 0 0 0 0 0 0 0 0
0 0 0 0 0 0 0 0 0 0 0 0 0 0 0 0 0 0 0 0 0 0 0 0 0 0 0 0 0 0 0 0 0 0 0 0 0 0 0 0 0 0 0 0 0 0 0 0 0
0 0 0 0 0 0 0 0 0 0 0 0 0 0 0 0 0 0 0 0 0 0 0 0 0 0 0 0 0 0 0 0 0 0 0 0 0 0 0 0 0 0 0 0 0 0 0 0 0
0 0 0 0 0 0 0 0 0 0 0 0 0 0 0 0 0 0 0 0 0 0 0 0 0 0 0 0 0 0 0 0 0 0 0 0 0 0 0 0 0 0 0 0 0 0 0 0 0
0 0 0 0 0 0 0 0 0 0 0 0 0 0 0 0 0 0 0 0 0 0 0 0 0 0 0 0 0 0 0 0 0 0 0 0 0 0 0 0 0 0 0 0 0 0 0 0 0
0 0 0 0 0 0 0 0 0 0 0 0 0 0 0 0 0 0 0 0 0 0 0 0 0 0 0 0 0 0 0 0 0 0 0 0 0 0 0 0 0 0 0 0 0 0 0 0 0
0 0 0 0 0 0 0 0 0 0 0 0 0 0 0 0 1 1 0 0 0 0 0 0 0 0 0 0 0 0 0 0 0 0 0 0 0 0 0 0 0 0 0 0 0 0 0 0 0
0 0 0 0 0 0 0 0 0 0 0 0 0 0 0 0 1 1 1 0 0 0 0 0 0 0 0 0 0 0 0 0 0 0 0 0 0 0 0 0 0 0 0 0 0 0 0 0 0
0 0 0 0 0 0 0 0 0 0 0 0 0 0 0 0 1 1 1 0 0 0 0 0 0 0 0 0 0 0 0 0 0 0 0 0 0 0 0 0 0 0 0 0 0 0 0 0 0
0 0 0 0 0 0 0 0 0 0 0 0 0 0 0 0 0 0 0 0 0 0 0 0 0 0 0 0 0 0 0 0 0 0 0 0 0 0 0 0 0 0 0 0 0 0 0 0 0
0 0 0 0 0 0 0 0 0 0 0 0 0 0 0 0 0 0 0 0 0 0 0 0 0 0 0 0 0 0 0 0 0 0 0 0 0 0 0 0 0 0 0 0 0 0 0 0 0
0 0 0 0 0 0 0 0 0 0 0 0 0 0 0 0 0 0 0 0 0 0 0 0 0 0 0 0 0 0 0 0 0 0 0 0 0 0 0 0 0 0 0 0 0 0 0 0 0
0 0 0 0 0 0 0 0 0 0 0 0 0 0 0 0 0 0 0 0 0 0 0 0 0 0 0 0 0 0 0 0 0 0 0 0 0 0 0 0 0 0 0 0 0 0 0 0 0
0 0 0 0 0 0 0 0 0 0 0 0 0 0 0 0 0 0 0 0 0 0 0 0 0 0 0 0 0 0 0 0 0 0 0 0 0 0 0 0 0 0 0 0 0 0 0 0 0
0 0 0 0 0 0 0 0 0 0 0 0 0 0 0 0 0 0 0 0 0 0 0 0 0 0 0 0 0 0 0 0 0 0 0 0 0 0 0 0 0 0 0 0 0 0 0 0 0
Wind_Speed
2 1 2 3 4 3 1 1 2 1 2 4 8 9 8 6 5 6 2 9 10 8 6 8 10 10 10 10 10 10 10 9 9 9 9 8 8 8 7 7 7 7 7 6 6 6 5 5 5
2 1 2 3 3 3 0 2 1 1 4 6 8 8 8 7 6 7 5 10 10 9 6 7 11 11 11 10 10 10 10 9 9 8 8 8 7 7 7 7 7 7 6 6 6 6 5 5 5
1 1 2 3 2 3 3 3 2 1 4 4 5 6 6 5 5 5 8 11 10 8 6 8 12 11 11 10 10 9 9 8 8 7 7 7 7 6 6 6 6 6 6 6 6 5 5 5 5
2 2 3 3 2 2 4 3 3 4 5 5 6 6 4 3 4 8 13 12 11 8 6 8 12 11 11 10 10 9 8 8 7 7 6 6 6 6 6 6 6 5 5 5 5 5 5 5 5
2 3 3 2 1 1 1 2 3 4 4 5 8 7 4 3 10 14 12 11 11 8 6 7 12 11 11 10 9 8 7 7 6 5 5 4 4 4 4 4 4 5 5 5 5 5 5 5 6
3 3 3 2 1 0 1 1 4 8 8 8 9 7 4 5 10 11 11 9 10 9 7 6 11 11 10 10 9 7 6 5 4 3 3 3 3 3 3 3 3 4 4 5 5 5 6 6 6
3 3 3 2 1 0 1 1 4 6 6 5 6 7 4 5 7 10 10 9 8 8 7 4 5 7 9 9 8 7 5 4 2 1 1 2 2 2 2 3 3 3 4 5 5 6 7 7 7
3 3 3 2 2 1 1 2 4 6 5 6 6 8 6 7 8 9 9 8 7 6 6 5 4 4 4 4 7 7 5 3 1 2 3 3 3 3 3 3 3 4 5 6 6 7 8 8 8
2 4 2 3 4 2 1 3 3 5 7 4 4 6 9 11 9 9 6 5 5 6 5 5 5 4 4 3 5 5 4 2 2 3 4 4 2 2 3 4 4 5 6 7 8 9 9 9 7
3 3 3 3 4 3 2 3 4 5 8 6 7 8 10 10 9 9 8 7 6 6 6 5 5 5 4 4 2 1 1 1 1 1 2 2 2 1 1 3 5 5 6 8 9 10 9 6 3
2 3 2 2 3 2 2 2 3 8 6 9 13 13 11 9 8 8 7 7 7 6 6 6 6 5 5 2 2 1 0 0 1 1 1 2 2 2 2 2 3 4 5 4 6 6 4 3 3
2 2 3 3 2 2 2 2 3 6 8 11 14 14 12 11 9 9 8 7 6 6 6 6 6 5 3 2 2 2 1 1 1 1 2 2 2 3 2 2 2 2 2 3 3 3 4 4 4
2 2 3 3 2 3 4 3 3 4 8 11 11 11 11 11 9 8 8 7 6 6 5 6 6 5 3 2 2 2 2 2 1 2 2 3 2 2 2 2 2 3 2 3 3 4 4 4 4
3 3 2 2 1 1 5 3 4 5 10 11 11 10 10 10 10 8 7 7 7 6 6 5 5 5 4 3 3 2 2 2 2 2 3 3 3 2 3 3 3 3 3 3 3 4 3 3 3
3 4 2 1 2 2 5 3 3 7 10 10 9 9 8 8 8 10 10 9 8 7 6 7 6 5 5 4 3 3 2 3 3 2 3 3 3 3 3 3 3 3 3 3 3 4 3 4 4
3 3 1 3 3 2 6 3 3 7 9 8 7 7 7 6 7 8 8 8 8 7 7 6 7 6 5 4 4 3 3 3 2 2 3 4 4 3 3 3 2 3 3 3 3 3 3 3 3
2 3 3 2 2 3 5 3 3 4 8 7 6 6 6 4 4 5 7 8 8 8 7 6 6 6 5 5 4 4 3 3 2 2 2 3 3 3 3 2 2 3 3 3 3 3 2 3 4
3 3 3 3 2 5 5 3 2 4 7 6 6 5 5 4 4 4 6 7 7 6 6 6 6 6 5 4 3 3 3 2 2 2 2 3 3 3 3 2 3 3 3 3 3 3 3 2 3
4 3 2 3 3 5 6 4 3 4 6 6 5 5 5 3 2 3 5 6 6 5 5 6 6 4 4 3 3 2 1 1 1 1 1 2 2 3 3 2 3 3 2 3 3 3 4 3 3
3 3 3 2 4 5 6 4 2 3 4 6 7 6 5 3 3 4 5 5 5 5 5 5 6 5 4 3 2 2 2 1 0 1 1 1 1 1 2 2 2 2 2 4 4 3 3 3 3
3 5 6 6 3 5 7 4 3 2 3 3 3 4 5 6 6 5 5 4 4 5 5 6 5 5 4 4 3 3 3 3 2 2 1 1 1 0 1 2 2 2 1 2 3 2 3 2 3
4 6 7 7 5 1 4 3 3 0 2 2 2 3 4 4 4 4 4 4 4 4 4 5 5 5 4 4 4 3 2 0 1 1 1 2 1 1 1 1 1 1 1 1 2 2 1 2 2
4 4 6 6 5 4 3 5 3 0 2 1 2 3 4 4 5 5 4 4 4 4 5 5 5 5 4 4 4 4 2 1 1 1 1 2 2 2 1 1 1 1 1 1 2 2 2 1 1
4 6 6 4 4 2 2 4 3 4 6 5 4 4 4 4 5 4 3 4 5 4 5 5 5 4 3 4 3 3 2 1 1 1 1 2 2 2 2 1 0 0 0 1 1 1 1 1 1
5 6 3 3 3 2 2 2 5 5 6 8 8 6 5 5 5 5 5 4 4 5 5 5 5 4 3 3 2 2 2 1 0 1 0 1 1 2 3 2 1 1 1 1 0 1 1 1 1
4 6 6 5 4 1 1 2 4 2 4 6 7 7 6 5 5 5 4 4 4 5 5 5 5 3 2 2 2 1 1 1 0 0 0 0 1 2 2 2 2 2 2 1 0 1 1 1 1
5 3 4 6 3 2 1 1 3 2 5 6 7 7 6 5 5 5 4 4 4 4 4 4 5 3 2 2 2 2 1 1 1 1 1 1 1 1 1 1 1 2 2 1 0 1 2 1 1
5 6 5 5 5 3 1 3 6 8 9 8 8 7 6 5 5 4 4 3 3 3 4 4 4 4 2 2 2 2 1 1 1 2 2 2 2 2 2 2 2 2 2 1 1 1 2 1 2
4 4 4 4 5 6 4 6 8 13 13 12 10 8 8 7 6 5 4 3 4 4 4 4 3 3 3 2 2 3 2 2 2 2 2 2 2 2 2 2 2 2 2 2 1 2 2 2 2
5 6 7 6 3 4 4 6 3 11 11 11 10 8 7 7 5 5 4 4 4 4 4 4 3 3 2 2 3 3 2 2 3 2 3 3 3 3 3 2 2 2 2 2 1 3 2 2 3
Wind_Direction
176 114 92 64 63 63 78 244 227 272 40 62 80 84 80 58 80 121 140 131 127 124 118 115 114 111 107 103 99 95 92 88 85 82 78 74 70 66 61 59 56 53 48 43 38 33 31 28 24
125 115 73 66 86 98 251 236 172 117 136 114 86 83 80 74 82 104 120 133 128 126 122 119 116 111 107 104 100 97 93 90 86 81 77 73 69 64 58 52 47 44 39 34 30 25 22 15 13
135 137 85 76 107 151 178 219 176 103 110 99 81 58 70 100 104 112 137 136 129 123 119 124 119 116 112 107 103 99 96 91 86 80 75 69 65 60 55 48 41 36 32 28 25 18 13 7 5
77 52 62 79 123 192 181 205 146 103 71 63 93 66 50 77 112 128 136 134 127 124 125 131 126 124 119 114 109 104 98 91 85 80 74 68 61 56 52 46 38 34 28 23 17 11 6 359 353
67 82 72 91 142 211 221 200 136 106 82 75 91 87 62 51 110 127 135 135 131 131 132 137 134 131 127 122 117 111 105 98 89 79 71 64 53 46 43 36 30 25 19 14 5 356 349 344 340
57 74 88 106 86 77 214 178 107 102 113 108 102 103 95 120 121 134 138 139 139 141 142 143 143 140 135 131 127 123 117 109 99 84 64 48 36 22 15 8 8 11 7 360 349 339 336 332 328
99 90 112 129 107 19 172 129 112 117 127 133 121 101 117 141 138 140 142 141 142 144 144 149 151 148 148 145 144 143 140 134 128 111 6 4 350 337 332 331 343 354 355 348 339 330 323 318 315
123 97 101 138 137 223 221 129 119 118 109 119 115 125 157 174 146 134 136 136 140 148 153 160 164 162 159 161 163 164 167 170 205 286 317 334 329 307 289 300 309 332 345 344 336 329 323 316 311
96 83 140 175 161 198 123 102 87 77 95 82 91 131 154 151 136 125 125 130 148 160 170 170 172 177 178 187 193 183 192 211 263 312 320 344 345 327 298 284 296 322 339 342 338 337 337 330 320
92 122 193 197 177 171 131 112 121 91 87 85 94 112 135 140 140 142 150 159 165 172 181 180 180 188 194 203 186 205 244 285 298 307 330 1 7 352 355 312 325 340 348 349 347 346 345 342 326
135 162 184 189 176 160 113 89 92 118 125 151 148 151 151 149 152 160 168 169 174 173 174 177 180 185 186 192 174 182 256 309 317 343 16 40 41 29 22 12 1 360 5 356 348 355 348 341 334
130 187 189 176 158 127 119 97 100 143 171 168 159 158 158 163 171 176 176 176 167 156 163 167 167 166 173 164 158 151 146 133 71 44 54 56 47 37 28 26 8 4 357 352 348 346 344 342 340
167 197 188 177 150 136 127 119 115 150 154 155 155 158 166 171 178 183 178 172 164 155 160 160 151 149 150 134 130 125 131 121 103 67 60 72 65 46 33 20 13 3 359 1 354 351 353 351 346
171 170 160 162 160 139 132 129 114 165 153 154 159 169 175 174 174 172 169 166 164 161 157 147 141 144 129 118 119 117 118 108 84 65 65 71 74 64 47 29 15 2 352 356 2 360 356 346 348
148 116 70 221 188 180 113 81 166 169 155 156 165 173 175 177 170 174 177 169 167 163 152 146 143 133 122 118 116 109 110 105 86 73 67 68 69 65 56 35 16 355 352 3 9 3 3 3 1
89 85 132 253 172 154 119 154 223 167 151 153 159 162 163 172 174 176 172 164 165 158 153 153 140 130 123 115 107 102 101 99 90 78 65 60 62 63 55 36 9 355 5 8 6 7 1 359 357
67 142 193 265 176 136 122 163 215 156 146 151 157 161 156 156 162 163 161 160 162 159 152 144 133 129 122 111 101 96 92 91 92 81 69 59 56 58 56 37 3 5 13 8 359 11 5 354 348
180 164 179 200 180 119 118 132 161 160 143 149 154 159 157 154 178 163 156 154 152 149 144 138 130 128 119 101 85 69 63 61 67 77 77 71 57 52 51 37 13 19 20 7 2 357 0 352 338
149 148 185 200 169 119 122 120 144 145 128 136 153 161 161 166 168 138 141 142 140 139 138 138 133 133 122 105 100 93 82 62 49 38 81 75 62 54 56 34 18 20 24 8 2 1 2 355 354
147 168 174 157 145 126 114 97 103 114 143 156 159 160 160 145 117 121 126 132 143 146 140 136 138 137 134 128 129 130 124 118 136 345 18 44 68 42 57 48 28 21 21 15 13 20 11 353 12
187 183 174 155 112 92 99 46 1 23 60 91 125 143 149 147 142 139 127 133 139 142 152 150 146 137 127 114 92 68 49 33 20 0 330 307 266 354 35 41 46 33 38 14 5 22 34 4 353
188 189 161 139 111 108 114 133 269 298 51 69 90 118 140 148 140 138 130 129 141 152 145 139 136 127 120 111 107 110 110 121 252 256 272 295 293 284 321 18 41 39 29 7 355 37 36 43 5
187 147 127 118 111 76 59 111 267 160 129 160 151 140 139 150 142 135 133 132 122 119 124 127 125 120 119 114 118 115 113 200 280 306 317 314 316 303 288 314 24 21 7 352 360 13 30 48 47
131 86 74 56 76 88 228 128 223 215 184 171 163 145 134 128 124 122 113 100 90 95 107 113 116 113 116 116 118 123 126 120 23 359 343 320 316 313 296 276 298 300 299 322 336 358 20 20 35
106 100 86 48 48 226 214 139 228 217 178 163 154 145 132 125 121 112 107 104 103 106 112 116 116 109 112 113 116 133 144 140 161 272 285 309 310 300 289 278 258 258 263 262 319 355 349 347 3
158 137 147 154 168 226 23 196 253 205 152 142 136 136 123 117 118 117 120 121 119 117 118 118 119 116 118 116 112 98 99 100 98 261 226 248 250 259 282 286 270 264 269 275 304 338 315 334 327
127 147 155 123 115 100 280 309 347 93 121 128 129 125 127 129 125 119 115 114 118 119 126 131 126 115 118 127 108 71 66 74 47 8 11 334 303 300 307 321 302 290 289 284 260 299 299 307 294
147 148 109 119 140 148 209 219 206 187 171 157 151 148 144 132 122 117 114 116 119 120 117 114 117 119 111 108 102 85 69 57 41 32 9 349 330 326 335 335 321 303 297 292 293 292 299 314 298
155 140 128 121 145 145 180 248 213 186 177 168 167 163 155 144 136 129 122 117 110 101 98 99 100 96 91 93 86 73 58 49 47 32 354 338 336 339 336 323 318 305 292 288 291 287 298 301 299
164 168 151 146 176 159 161 256 251 176 171 162 161 161 156 147 140 130 120 108 98 96 93 94 92 92 95 95 89 82 65 52 43 15 346 345 342 337 330 333 334 325 312 296 287 294 302 290 288